カタログに戻る

DELTA 1 R/B(2)

運用中HEO
NORAD 12679·ROCKET BODY·🇺🇸 United States

打ち上げ Aug 3, 1981 から Vandenberg Space Force Base

Loading…

次のパス (今後24時間)

TLE

最新Source: Space-Track

元期: Sep 13, 2026, 19:19 UTC

1 12679U 81070E   26256.80546951  .00000336  00000-0  10308-2 0  9996
2 12679  90.9423  49.6854 6241449 183.3478 168.9457  3.53106896578375

AllMySatでDELTA 1 R/B(2)をリアルタイム追跡

Download on the App Store